[[{"header":{"parameterUnit":"m.s-1","parameterCategory":1,"la1":30.2991,"la2":30.254,"lo1":-89.0895,"lo2":-89.0444,"dy":0.0017,"dx":0.0017,"nx":28,"ny":28,"refTime":"2024-04-23T21:00:00:Z","depth":0,"parameterNumber":2,"parameterNumberName":"U-component_of_WINDS"},"data":[0,0,0,0,0,0,0,0,0,0,0,0,0,0,0,0,0,0,0,0,0,0,0,0,0,0,0,0,0,0,0,0,0,0,0,0,0,0,0,0,0,0,0,0,0,0,0,0,0,0,0,0,0,0,0,0,0,0,-1.4789,-1.4788,0,-1.4709,-1.4708,-1.4707,-1.464,-1.4639,-1.4639,-1.4638,-1.4556,-1.4555,-1.4553,0,0,0,0,0,0,0,0,0,0,0,0,0,-1.4886,-1.4885,-1.4789,-1.4788,-1.4787,-1.4709,-1.4708,-1.4707,-1.464,-1.4639,-1.4638,-1.4638,-1.4557,-1.4555,-1.4553,0,0,0,0,0,0,0,0,0,0,0,0,0,-1.4829,-1.4885,-1.479,-1.4745,-1.474,-1.471,-1.4708,-1.4707,-1.464,-1.4639,-1.4638,-1.4637,-1.4557,-1.4555,-1.4553,-1.4561,0,0,-1.4546,-1.4545,0,0,0,0,0,0,0,0,-1.4832,-1.4826,-1.4752,-1.4748,-1.4742,-1.4683,-1.4712,-1.4658,-1.4641,-1.4678,-1.4638,-1.4637,-1.4599,-1.4594,-1.4581,-1.4557,-1.4553,-1.4546,-1.4544,-1.4543,-1.4543,0,0,0,0,0,0,0,-1.4837,-1.4829,-1.4758,-1.4751,-1.4745,-1.4729,-1.472,-1.4702,-1.4646,-1.4675,-1.467,-1.4661,-1.4596,-1.4583,-1.4579,-1.4552,-1.4546,-1.4544,-1.4542,-1.4541,-1.4533,-1.4534,0,0,0,0,0,0,-1.4847,-1.4832,-1.476,-1.4755,-1.4786,-1.4728,-1.4718,-1.4703,-1.4646,-1.4636,-1.4662,-1.4658,-1.4588,-1.4581,-1.4575,-1.4582,-1.4543,-1.4541,-1.454,-1.4532,-1.4533,-1.4534,0,0,0,0,0,0,-1.485,-1.4841,-1.4763,-1.4792,-1.4781,-1.4728,-1.4712,-1.4702,-1.4689,-1.4636,-1.4626,-1.4659,-1.4587,-1.4579,-1.4565,-1.4578,-1.454,-1.4538,-1.453,-1.4532,-1.4534,-1.4595,0,0,0,0,0,0,-1.4853,-1.4843,-1.4844,-1.4793,-1.478,-1.4754,-1.4713,-1.4702,-1.4685,-1.468,-1.463,-1.4621,-1.4585,-1.4569,-1.4563,-1.4574,-1.4536,-1.4529,-1.4531,-1.4533,-1.4591,-1.4598,-1.4604,0,0,0,0,0,-1.4856,-1.4864,-1.4845,-1.4837,-1.4781,-1.4755,-1.4747,-1.4705,-1.4687,-1.4688,-1.4655,-1.4623,-1.4578,-1.4568,-1.4561,-1.4572,-1.4528,-1.4531,-1.4533,-1.4588,-1.4597,-1.4604,0,0,0,0,0,0,-1.4918,-1.4857,-1.4834,-1.4826,-1.4796,-1.4744,-1.4744,-1.4716,-1.4691,-1.4686,-1.4636,-1.4625,-1.4618,-1.4593,-1.4584,-1.4578,-1.4549,-1.455,-1.4593,-1.4601,-1.4607,-1.4613,-1.4535,0,0,0,0,0,-1.4931,-1.4914,-1.4862,-1.4859,-1.4846,-1.4798,-1.4785,-1.4756,-1.4723,-1.471,-1.4675,-1.4645,-1.4624,-1.4611,-1.4589,-1.4588,-1.4577,-1.4592,-1.4599,-1.4604,-1.4605,-1.4605,-1.4611,-1.4543,-1.4543,-1.4543,0,0,-1.4956,-1.4921,-1.4913,-1.4871,-1.4844,-1.4829,-1.4788,-1.4773,-1.4761,-1.4707,-1.4693,-1.4667,-1.463,-1.4624,-1.4619,-1.4603,-1.4622,-1.4607,-1.4612,-1.461,-1.4608,-1.4615,-1.462,-1.4544,-1.4544,-1.4544,0,0,-1.4996,-1.4967,-1.4962,-1.4937,-1.4898,-1.4867,-1.4866,-1.4818,-1.4799,-1.4784,-1.4744,-1.473,-1.4695,-1.4671,-1.4654,-1.4688,-1.4658,-1.4682,-1.4715,-1.4715,-1.4721,-1.4725,-1.4738,-1.4743,-1.4684,-1.4684,-1.4684,0,-1.5032,-1.5007,-1.4964,-1.4952,-1.4935,-1.4887,-1.4882,-1.486,-1.4816,-1.4806,-1.4789,-1.4746,-1.4717,-1.4705,-1.4714,-1.4701,-1.47,-1.4687,-1.4723,-1.4728,-1.4731,-1.4743,-1.4748,-1.4687,-1.4687,-1.4687,-1.4686,0,-1.5055,-1.5039,-1.504,-1.4999,-1.4983,-1.4975,-1.4931,-1.492,-1.4893,-1.4864,-1.485,-1.4815,-1.4786,-1.4781,-1.4754,-1.4766,-1.4757,-1.4733,-1.4703,-1.4742,-1.4752,-1.4756,-1.4692,-1.4691,-1.469,-1.4689,0,0,-1.5128,-1.5065,-1.5067,-1.5048,-1.5003,-1.499,-1.4981,-1.4953,-1.4945,-1.4917,-1.4909,-1.4882,-1.4859,-1.4841,-1.4811,-1.4811,-1.4842,-1.4787,-1.4785,-1.4798,-1.4854,-1.4872,-1.4878,-1.4822,-1.4823,-1.4823,-1.4857,0,-1.516,-1.514,-1.5102,-1.5095,-1.508,-1.5036,-1.5028,-1.5,-1.4974,-1.4958,-1.4929,-1.4911,-1.4882,-1.4871,-1.4869,-1.4838,-1.4852,-1.4835,-1.4814,-1.4814,-1.4824,-1.4883,-1.4902,-1.4935,-1.4861,-1.4861,-1.4862,0,-1.5193,-1.5169,-1.5161,-1.5119,-1.5111,-1.5105,-1.5077,-1.5062,-1.5031,-1.5012,-1.4992,-1.496,-1.495,-1.4924,-1.4909,-1.4899,-1.4889,-1.4873,-1.4873,-1.4869,-1.484,-1.4881,-1.4945,-1.495,-1.4867,-1.4867,-1.4867,0,-1.5248,-1.5213,-1.5204,-1.519,-1.5141,-1.5138,-1.5117,-1.5084,-1.5071,-1.5047,-1.5038,-1.5013,-1.5,-1.4982,-1.4946,-1.493,-1.4936,-1.4906,-1.492,-1.4921,-1.4922,-1.4923,-1.4986,-1.4917,-1.4917,-1.4917,-1.4917,0,-1.5287,-1.5284,-1.5228,-1.5223,-1.5219,-1.5176,-1.5173,-1.5148,-1.512,-1.511,-1.5071,-1.5062,-1.5014,-1.5,-1.4971,-1.4965,-1.4959,-1.4944,-1.4936,-1.4947,-1.4949,-1.4939,-1.4936,-1.4918,-1.4918,-1.4917,-1.4917,0,-1.5346,-1.5309,-1.5296,-1.5252,-1.524,-1.5239,-1.5201,-1.5195,-1.5167,-1.5155,-1.515,-1.5106,-1.5088,-1.505,-1.5022,-1.5003,-1.5003,-1.4989,-1.5014,-1.5009,-1.5026,-1.5025,-1.5084,-1.509,-1.5018,-1.5018,-1.5019,0,-1.5373,-1.537,-1.5325,-1.5316,-1.5297,-1.5282,-1.5268,-1.5227,-1.5215,-1.518,-1.5179,-1.5158,-1.5139,-1.5113,-1.5079,-1.5058,-1.5043,-1.5066,-1.504,-1.5052,-1.5044,-1.5045,-1.5045,-1.5071,-1.5072,-1.5073,-1.5074,0,-1.5425,-1.5408,-1.5389,-1.5366,-1.5351,-1.533,-1.5307,-1.5302,-1.5255,-1.5244,-1.5225,-1.5211,-1.5183,-1.5163,-1.5137,-1.5117,-1.5088,-1.5083,-1.5085,-1.5095,-1.511,-1.5103,-1.5029,-1.5081,-1.508,-1.508,-1.5079,-1.5079,-1.5469,-1.5465,-1.5433,-1.5415,-1.5394,-1.5374,-1.5367,-1.5339,-1.5323,-1.5297,-1.5274,-1.5258,-1.5229,-1.5192,-1.5174,-1.5162,-1.5147,-1.515,-1.5151,-1.5152,-1.5157,-1.5113,-1.5157,-1.5156,-1.5156,-1.5156,-1.5156,0,-1.5519,-1.5497,-1.5481,-1.5451,-1.5437,-1.5412,-1.5387,-1.5377,-1.5363,-1.5339,-1.5322,-1.5302,-1.5283,-1.525,-1.5229,-1.5226,-1.5212,-1.5222,-1.5221,-1.5217,-1.5171,-1.5171,-1.5233,-1.5233,-1.5233,-1.5233,-1.5233,-1.5233,-1.5543,-1.5535,-1.5515,-1.5497,-1.5475,-1.5459,-1.5447,-1.5429,-1.541,-1.5389,-1.5374,-1.5352,-1.5325,-1.5302,-1.5285,-1.5275,-1.527,-1.5284,-1.527,-1.5227,-1.522,-1.5213,-1.5213,-1.5283,-1.5283,-1.5317,-1.5317,-1.5318]},{"header":{"parameterUnit":"m.s-1","parameterCategory":1,"la1":30.2991,"la2":30.254,"lo1":-89.0895,"lo2":-89.0444,"dy":0.0017,"dx":0.0017,"nx":28,"ny":28,"refTime":"2024-04-23T21:00:00:Z","depth":0,"parameterNumber":3,"parameterNumberName":"V-component_of_WINDS"},"data":[0,0,0,0,0,0,0,0,0,0,0,0,0,0,0,0,0,0,0,0,0,0,0,0,0,0,0,0,0,0,0,0,0,0,0,0,0,0,0,0,0,0,0,0,0,0,0,0,0,0,0,0,0,0,0,0,0,0,1.4959,1.4959,0,1.4957,1.4957,1.4957,1.499,1.4991,1.4992,1.4993,1.4986,1.4985,1.4984,0,0,0,0,0,0,0,0,0,0,0,0,0,1.499,1.4989,1.4959,1.4959,1.4959,1.4957,1.4957,1.4957,1.499,1.4991,1.4992,1.4994,1.4986,1.4985,1.4984,0,0,0,0,0,0,0,0,0,0,0,0,0,1.4981,1.4989,1.4959,1.4976,1.4977,1.4957,1.4957,1.4956,1.499,1.4991,1.4993,1.4994,1.4987,1.4985,1.4983,1.4945,0,0,1.4978,1.4978,0,0,0,0,0,0,0,0,1.4981,1.498,1.4973,1.4975,1.4976,1.4975,1.4965,1.4953,1.499,1.4985,1.4993,1.4995,1.4981,1.498,1.4976,1.4945,1.4945,1.4978,1.4977,1.4977,1.4976,0,0,0,0,0,0,0,1.4982,1.498,1.4958,1.4973,1.4975,1.4982,1.4982,1.4963,1.4975,1.4985,1.4988,1.4987,1.4982,1.4978,1.4976,1.4945,1.4978,1.4977,1.4976,1.4975,1.4883,1.4881,0,0,0,0,0,0,1.4981,1.498,1.4958,1.4958,1.4982,1.498,1.4981,1.4974,1.4975,1.4977,1.4986,1.4989,1.498,1.4978,1.4976,1.4932,1.4977,1.4975,1.4974,1.4884,1.4882,1.4881,0,0,0,0,0,0,1.4981,1.4978,1.4958,1.497,1.4968,1.4979,1.4971,1.4973,1.4969,1.4976,1.4978,1.498,1.4981,1.4978,1.4953,1.4932,1.4974,1.4973,1.4886,1.4884,1.4882,1.4843,0,0,0,0,0,0,1.4982,1.4978,1.4965,1.4969,1.4967,1.4936,1.4969,1.4972,1.4967,1.497,1.497,1.4972,1.4982,1.4955,1.4952,1.4931,1.4972,1.4888,1.4885,1.4882,1.4846,1.484,1.4834,0,0,0,0,0,1.4983,1.4953,1.4964,1.4961,1.495,1.4935,1.4934,1.4947,1.4965,1.4951,1.4955,1.4972,1.4935,1.4953,1.4949,1.4927,1.4889,1.4886,1.4883,1.4849,1.4841,1.4834,0,0,0,0,0,0,1.4944,1.4954,1.4966,1.4937,1.4935,1.4941,1.4923,1.4938,1.493,1.4933,1.4949,1.4949,1.4921,1.4921,1.4941,1.489,1.4915,1.4911,1.4891,1.4883,1.4878,1.4878,1.497,0,0,0,0,0,1.4932,1.492,1.4929,1.4902,1.4901,1.4912,1.4906,1.4917,1.4915,1.4914,1.4916,1.4913,1.4901,1.4892,1.4881,1.4847,1.4847,1.483,1.4824,1.4819,1.4814,1.4796,1.4789,1.487,1.487,1.487,0,0,1.4907,1.4911,1.4902,1.4894,1.4894,1.488,1.4911,1.4895,1.4885,1.4911,1.4888,1.489,1.4887,1.4857,1.4844,1.4856,1.4792,1.4814,1.481,1.4809,1.4792,1.4784,1.4778,1.4867,1.4868,1.4868,0,0,1.4854,1.4856,1.4835,1.4834,1.4835,1.4843,1.4838,1.4841,1.4844,1.4822,1.4841,1.4829,1.4807,1.4805,1.48,1.4748,1.4763,1.4744,1.4712,1.4694,1.4688,1.4682,1.4664,1.4657,1.474,1.474,1.474,0,1.4823,1.4804,1.4821,1.4804,1.48,1.4825,1.4803,1.4801,1.4797,1.4793,1.4808,1.4783,1.4782,1.4752,1.474,1.4735,1.4729,1.4744,1.4688,1.4682,1.4677,1.466,1.4652,1.4738,1.4738,1.4738,1.4738,0,1.4765,1.4752,1.4734,1.4731,1.4725,1.4705,1.4719,1.471,1.4722,1.4728,1.4705,1.4706,1.4696,1.469,1.47,1.4661,1.4669,1.4686,1.4711,1.4667,1.4651,1.4644,1.4735,1.4735,1.4736,1.4737,0,0,1.4686,1.4695,1.4688,1.4687,1.469,1.4679,1.4661,1.4653,1.4645,1.4642,1.4626,1.4608,1.4624,1.4619,1.4629,1.4614,1.4572,1.4632,1.4633,1.4621,1.453,1.4517,1.4508,1.4583,1.4581,1.4581,1.453,0,1.4635,1.4605,1.462,1.4587,1.4575,1.46,1.4583,1.4583,1.4588,1.4578,1.4584,1.4571,1.4593,1.459,1.4576,1.4581,1.4554,1.4585,1.4567,1.4566,1.4566,1.45,1.4486,1.4438,1.4523,1.4522,1.4521,0,1.457,1.4566,1.4533,1.4539,1.4534,1.452,1.4514,1.4504,1.4504,1.4509,1.4504,1.4519,1.45,1.4526,1.45,1.452,1.4514,1.4515,1.4514,1.4512,1.454,1.4495,1.4423,1.4415,1.4511,1.4512,1.4513,0,1.4516,1.4502,1.448,1.4479,1.4485,1.4475,1.4476,1.4478,1.4472,1.4467,1.4463,1.4455,1.4451,1.4444,1.4455,1.4473,1.4427,1.4454,1.443,1.443,1.4418,1.4419,1.4343,1.4416,1.4416,1.4416,1.4416,0,1.4456,1.4435,1.4456,1.4443,1.4419,1.4437,1.4413,1.4417,1.4419,1.4406,1.4426,1.4413,1.443,1.4418,1.4427,1.4404,1.4402,1.4405,1.4407,1.4403,1.4402,1.4398,1.4401,1.4414,1.4414,1.4415,1.4415,0,1.4391,1.4404,1.4382,1.4391,1.4393,1.4375,1.4382,1.4369,1.4377,1.4361,1.4358,1.4369,1.4357,1.4368,1.4356,1.4362,1.4331,1.4339,1.4332,1.4334,1.4309,1.4311,1.4227,1.4217,1.4297,1.4296,1.4295,0,1.4352,1.4336,1.4344,1.4337,1.4339,1.4328,1.4323,1.434,1.4334,1.4333,1.432,1.4311,1.4303,1.4282,1.4289,1.428,1.4287,1.4258,1.4285,1.4281,1.4286,1.4286,1.4285,1.4252,1.4251,1.425,1.425,0,1.428,1.4288,1.4281,1.4277,1.4271,1.4267,1.4265,1.4259,1.4277,1.4268,1.4257,1.4252,1.4241,1.423,1.4223,1.4224,1.4239,1.4242,1.4235,1.423,1.4226,1.4228,1.4316,1.4243,1.4244,1.4244,1.4245,1.4245,1.4227,1.4214,1.4218,1.4209,1.421,1.4208,1.4197,1.4205,1.4196,1.4189,1.42,1.4186,1.4186,1.4179,1.4178,1.4167,1.4178,1.417,1.4167,1.4165,1.4161,1.4229,1.4165,1.4166,1.4166,1.4166,1.4166,0,1.4156,1.416,1.4153,1.415,1.4144,1.4161,1.416,1.4153,1.4141,1.4141,1.4134,1.4121,1.4111,1.4118,1.4109,1.4099,1.4106,1.4096,1.4096,1.4096,1.4151,1.4157,1.4091,1.4091,1.4091,1.4091,1.4091,1.4091,1.4119,1.4099,1.4107,1.4087,1.4091,1.4079,1.4077,1.4075,1.4076,1.4061,1.4053,1.4059,1.4061,1.4053,1.4045,1.4047,1.4042,1.403,1.4034,1.4085,1.4092,1.4099,1.4105,1.4029,1.4029,1.3981,1.398,1.398]}]]